Weather History for Aberdeen, SD

Change the Weather History Date:

Wednesday, January 9, 2013

  Actual Average Record
Temperature  
Mean Temperature 24 °F 12 °F  
Max Temperature 34 °F 22 °F 53 °F (2012)
Min Temperature 13 °F 1 °F -31 °F (1977)
Degree Days  
Heating Degree Days 41 53  
Month to date heating degree days 431 477  
Since 1 July heating degree days 3855 3968  
Cooling Degree Days 0 0  
Month to date cooling degree days 0 0  
Year to date cooling degree days 0 0  
Moisture  
Dew Point 20 °F    
Average Humidity 78    
Maximum Humidity 92    
Minimum Humidity 63    
Precipitation  
Precipitation 0.00 in 0.02 in 1.12 in (1939)
Month to date precipitation T 0.16  
Year to date precipitation T 0.16  
Snow  
Snow 0.00 in - - ()
Month to date snowfall T  
Since 1 July snowfall 13.9  
Snow Depth 3.00 in    
Sea Level Pressure  
Sea Level Pressure 30.16 in    
Wind  
Wind Speed 12 mph (SSW)    
Max Wind Speed 24 mph    
Max Gust Speed 31 mph    
Visibility 10 miles    
Events      
T = Trace of Precipitation, MM = Missing Value Source: NWS Daily Summary

Daily Weather History Graph

Daily Weather History Graph

Search for Another Location

Airport:

Trip Planner

Search our weather history database for the weather conditions in past years. The results will help you decide how hot, cold, wet, or windy it might be!

Date:

Astronomy

Jan. 09, 2013 Rise Set
Actual Time 8:12 AM CST 5:09 PM CST
Civil Twilight 7:38 AM CST 5:43 PM CST
Nautical Twilight 7:01 AM CST 6:20 PM CST
Astronomical Twilight 6:26 AM CST 6:56 PM CST
Moon 5:53 AM CST (1/9) 3:12 PM CST (1/9)
Length of Visible Light 10h 04m
Length of Day
8h 57m
Waning Crescent, 6% of the Moon is Illuminated
Jan 9
Waning Crescent
Jan 11
New
Jan 18
First Quarter
Jan 26
Full
Feb 3
Last Quarter

Hourly Weather History & Observations

Time (CST) Temp. Windchill Dew Point Humidity Pressure Visibility Wind Dir Wind Speed Gust Speed Precip Events Conditions
12:53 AM 30.9 °F 20.2 °F 23.0 °F 72% 30.01 in 10.0 mi West 15.0 mph - N/A   Clear
1:53 AM 32.0 °F 20.1 °F 23.0 °F 69% 30.04 in 10.0 mi West 19.6 mph 26.5 mph N/A   Clear
2:53 AM 32.0 °F 21.2 °F 21.9 °F 66% 30.09 in 10.0 mi West 16.1 mph 28.8 mph N/A   Clear
3:53 AM 28.0 °F 17.5 °F 19.9 °F 72% 30.13 in 10.0 mi WSW 12.7 mph - N/A   Clear
4:53 AM 25.0 °F 13.6 °F 19.0 °F 78% 30.15 in 10.0 mi West 12.7 mph - N/A   Clear
5:53 AM 23.0 °F 13.9 °F 17.1 °F 78% 30.18 in 10.0 mi WSW 8.1 mph - N/A   Clear
6:53 AM 17.1 °F 8.7 °F 12.9 °F 84% 30.21 in 10.0 mi SSW 5.8 mph - N/A   Clear
7:53 AM 12.9 °F 3.8 °F 10.0 °F 88% 30.22 in 10.0 mi West 5.8 mph - N/A   Clear
8:53 AM 16.0 °F 10.4 °F 10.9 °F 81% 30.22 in 10.0 mi West 3.5 mph - N/A   Clear
9:53 AM 16.0 °F 6.3 °F 10.9 °F 81% 30.24 in 10.0 mi SW 6.9 mph - N/A   Clear
10:53 AM 19.9 °F 13.4 °F 15.1 °F 81% 30.26 in 10.0 mi South 4.6 mph - N/A   Clear
11:53 AM 25.0 °F 14.2 °F 18.0 °F 75% 30.27 in 10.0 mi South 11.5 mph - N/A   Clear
12:53 PM 27.0 °F 16.7 °F 19.9 °F 75% 30.25 in 10.0 mi South 11.5 mph - N/A   Clear
1:53 PM 30.0 °F 20.0 °F 21.9 °F 72% 30.24 in 10.0 mi SSE 12.7 mph - N/A   Clear
2:53 PM 30.9 °F 21.2 °F 23.0 °F 72% 30.22 in 10.0 mi SSE 12.7 mph - N/A   Clear
3:53 PM 30.0 °F 23.2 °F 23.0 °F 75% 30.21 in 10.0 mi SSE 6.9 mph - N/A   Clear
4:53 PM 28.9 °F 18.6 °F 21.9 °F 75% 30.19 in 10.0 mi SSE 12.7 mph - N/A   Clear
5:53 PM 28.0 °F 19.3 °F 21.9 °F 78% 30.17 in - South 9.2 mph - N/A   Clear
6:53 PM 27.0 °F 17.3 °F 21.9 °F 81% 30.15 in - SSE 10.4 mph - N/A   Clear
7:53 PM 30.0 °F 17.5 °F 23.0 °F 75% 30.12 in 10.0 mi South 19.6 mph - N/A   Clear
8:53 PM 32.0 °F 22.1 °F 25.0 °F 75% 30.09 in 10.0 mi South 13.8 mph - N/A   Clear
9:53 PM 32.0 °F 21.2 °F 26.1 °F 79% 30.06 in 10.0 mi South 16.1 mph - N/A   Clear
10:53 PM 33.1 °F 21.5 °F 26.1 °F 75% 30.06 in 10.0 mi South 19.6 mph - N/A   Clear
11:53 PM 34.0 °F 22.4 °F 27.0 °F 75% 30.05 in 10.0 mi South 20.7 mph - N/A   Clear